Change the Weather History Date:

Saturday, March 16, 2013

  Actual Average Record
Temperature  
Mean Temperature 49 °F -  
Max Temperature 59 °F 51 °F 78 °F (2015)
Min Temperature 39 °F 30 °F 13 °F (1988)
Degree Days  
Heating Degree Days 16    
Moisture  
Dew Point 28 °F    
Average Humidity 47    
Maximum Humidity 70    
Minimum Humidity 25    
Precipitation  
Precipitation 0.00 in - - ()
Sea Level Pressure  
Sea Level Pressure 29.93 in    
Wind  
Wind Speed 13 mph (WNW)    
Max Wind Speed 25 mph    
Max Gust Speed 36 mph    
Visibility 11 miles    
Events      
Averages and records for this station are not official NWS values.
T = Trace of Precipitation, MM = Missing Value Source: NWS Daily Summary

Daily Weather History Graph

Daily Weather History Graph

Search for Another Location

Airport or City:

Trip Planner

Search our weather history database for the weather conditions in past years. The results will help you decide how hot, cold, wet, or windy it might be!

Date:

Astronomy

Mar. 16, 2013 Rise Set
Actual Time 7:09 AM MDT 7:08 PM MDT
Civil Twilight 6:42 AM MDT 7:35 PM MDT
Nautical Twilight 6:11 AM MDT 8:07 PM MDT
Astronomical Twilight 5:39 AM MDT 8:39 PM MDT
Moon 9:41 AM MDT (3/16) No Moon Set
Length of Visible Light 12h 52m
Length of Day
11h 58m
Waxing Crescent, 23% of the Moon is Illuminated
Mar 16
Waxing Crescent
Mar 19
First Quarter
Mar 27
Full
Apr 2
Last Quarter
Apr 10
New

Hourly Weather History & Observations

Time (MDT) Temp. Windchill Dew Point Humidity Pressure Visibility Wind Dir Wind Speed Gust Speed Precip Events Conditions
12:15 AM 55.4 °F - 24.8 °F 31% 29.94 in 10.0 mi West 23.0 mph 26.5 mph N/A   Mostly Cloudy
12:35 AM 59.0 °F - 23.0 °F 25% 29.93 in 10.0 mi WSW 25.3 mph 35.7 mph N/A   Mostly Cloudy
12:55 AM 57.2 °F - 23.0 °F 27% 29.92 in 10.0 mi WSW 13.8 mph - N/A   Mostly Cloudy
1:15 AM 59.0 °F - 23.0 °F 25% 29.93 in 10.0 mi WSW 17.3 mph 23.0 mph N/A   Scattered Clouds
1:35 AM 55.4 °F - 23.0 °F 29% 29.93 in 10.0 mi WSW 15.0 mph 19.6 mph N/A   Clear
1:54 AM 55.4 °F - 24.8 °F 31% 29.94 in 10.0 mi West 10.4 mph - N/A   Clear
2:15 AM 53.6 °F - 26.6 °F 35% 29.96 in 10.0 mi West 12.7 mph - N/A   Scattered Clouds
2:35 AM 53.6 °F - 26.6 °F 35% 29.97 in 10.0 mi NNE 6.9 mph - N/A   Scattered Clouds
2:55 AM 51.8 °F - 28.4 °F 41% 29.97 in 10.0 mi East 13.8 mph 19.6 mph N/A   Mostly Cloudy
3:15 AM 50.0 °F - 26.6 °F 40% 29.97 in 10.0 mi NE 8.1 mph - N/A   Scattered Clouds
3:35 AM 48.2 °F - 26.6 °F 43% 29.98 in 10.0 mi NE 4.6 mph - N/A   Scattered Clouds
3:55 AM 48.2 °F - 26.6 °F 43% 29.98 in 10.0 mi Calm Calm - N/A   Clear
4:15 AM 46.4 °F 42.9 °F 28.4 °F 50% 29.98 in 10.0 mi West 6.9 mph - N/A   Clear
4:35 AM 44.6 °F 40.2 °F 28.4 °F 53% 29.99 in 10.0 mi West 8.1 mph - N/A   Mostly Cloudy
4:55 AM 48.2 °F - 26.6 °F 43% 29.99 in 10.0 mi NW 6.9 mph - N/A   Overcast
5:15 AM 46.4 °F 40.7 °F 28.4 °F 50% 29.99 in 10.0 mi NNW 12.7 mph - N/A   Overcast
5:35 AM 44.6 °F 38.4 °F 28.4 °F 53% 29.99 in 10.0 mi NNW 12.7 mph - N/A   Overcast
5:47 AM 44.6 °F 38.1 °F 28.4 °F 53% 29.99 in 30.0 mi NNW 13.8 mph - N/A   Mostly Cloudy
5:55 AM 42.8 °F 35.8 °F 30.2 °F 61% 29.99 in 10.0 mi North 13.8 mph - N/A   Overcast
6:45 AM 41.0 °F 32.8 °F 28.4 °F 61% 29.99 in 30.0 mi NNW 16.1 mph - N/A   Mostly Cloudy
7:47 AM 39.2 °F 32.0 °F 30.2 °F 70% 30.01 in 50.0 mi NW 11.5 mph - N/A   Overcast
8:50 AM 41.0 °F 34.7 °F 30.2 °F 65% 30.01 in 50.0 mi WNW 10.4 mph - N/A   Overcast
9:48 AM 41.0 °F 32.2 °F 30.2 °F 65% 29.99 in 40.0 mi NNW 18.4 mph 23.0 mph N/A   Overcast
10:47 AM 44.6 °F 37.8 °F 28.4 °F 53% 29.99 in 40.0 mi NNW 15.0 mph 21.9 mph N/A   Overcast
11:48 AM 44.6 °F 37.8 °F 28.4 °F 53% 29.97 in 40.0 mi NW 15.0 mph - N/A   Overcast
12:45 PM 46.4 °F 40.7 °F 30.2 °F 53% 29.93 in 30.0 mi NW 12.7 mph - N/A   Overcast
1:45 PM 48.2 °F - 28.4 °F 46% 29.89 in 30.0 mi NW 9.2 mph - N/A   Mostly Cloudy
2:55 PM 48.2 °F - 28.4 °F 46% 29.85 in 30.0 mi North 5.8 mph - N/A   Mostly Cloudy
3:50 PM 50.0 °F - 28.4 °F 43% 29.85 in 30.0 mi SSW 4.6 mph - N/A   Mostly Cloudy
4:46 PM 53.6 °F - 28.4 °F 38% 29.84 in 30.0 mi North 3.5 mph - N/A   Mostly Cloudy
5:45 PM 50.0 °F - 28.4 °F 43% 29.85 in 30.0 mi NNW 9.2 mph - N/A   Mostly Cloudy
6:45 PM 48.2 °F - 28.4 °F 46% 29.85 in 15.0 mi Calm Calm - N/A   Mostly Cloudy
7:46 PM 48.2 °F - 28.4 °F 46% 29.85 in 15.0 mi Calm Calm - N/A   Mostly Cloudy
8:46 PM 41.0 °F 35.8 °F 30.2 °F 65% 29.85 in 15.0 mi SW 8.1 mph - N/A   Scattered Clouds
9:48 PM 44.6 °F 40.2 °F 30.2 °F 57% 29.85 in 15.0 mi SW 8.1 mph - N/A   Scattered Clouds
11:15 PM 41.0 °F 37.1 °F 30.2 °F 65% 29.83 in 10.0 mi SW 5.8 mph - N/A   Clear
11:35 PM 41.0 °F 36.4 °F 26.6 °F 57% 29.83 in 10.0 mi SSW 6.9 mph - N/A   Clear
11:55 PM 41.0 °F 38.0 °F 26.6 °F 57% 29.82 in 10.0 mi SW 4.6 mph - N/A   Clear